DateTimeUTC,F1_A11,F1_S11,BsB_S11,BsG_S11,BsR_S11,BbsB_S11,BbsG_S11,BbsR_S11,BaB_A11,BaG_A11,BaR_A11,Tu_S11,T_S11,Uu_S11,U_S11,P_S11,T1_A11
2021-10-16T11:00:00Z,00000200,21000000,,,,,,,-000.11,0000.46,0000.32,16.7,23.8,,00.0,0666.7,30.9
2021-10-16T11:01:00Z,00000200,21000000,,,,,,,0000.20,-000.14,0000.04,16.7,23.8,,00.0,0666.7,30.9
2021-10-16T11:02:00Z,00000200,21000000,,,,,,,-000.05,0000.35,0000.15,16.7,23.9,,00.0,0666.7,30.9
2021-10-16T11:03:00Z,00000200,61000000,,,,,,,0000.66,0000.28,0000.24,16.7,23.9,,00.0,0666.7,30.9
2021-10-16T11:04:00Z,00000200,41000000,0004.78,0003.13,0002.32,0000.38,0000.38,0000.16,0001.18,0000.99,0000.87,17.0,23.7,,00.0,0667.6,30.9
2021-10-16T11:05:00Z,00000200,01000000,0005.38,0003.76,0002.06,0000.94,0000.54,0000.33,0001.00,0001.37,0000.65,17.1,23.7,,00.0,0667.7,30.9
2021-10-16T11:06:00Z,00000200,01000000,0004.72,0003.16,0002.09,0000.27,0000.61,0000.09,0001.08,0000.81,0001.00,17.1,23.7,,00.0,0667.7,30.9
2021-10-16T11:07:00Z,00000200,01000000,0004.71,0003.37,0002.01,0001.22,0000.55,0000.16,0000.98,0000.81,0000.32,17.1,23.7,,00.0,0667.7,30.9
2021-10-16T11:08:00Z,00000200,01000000,0003.45,0002.58,0001.55,0000.41,0000.36,0000.12,0000.32,0000.44,0000.36,17.2,23.7,,00.0,0667.7,30.9
2021-10-16T11:09:00Z,00000200,01000000,0003.50,0002.39,0001.49,0000.60,0000.47,0000.61,0000.64,0000.09,0000.37,17.2,23.7,,00.0,0667.7,30.9
2021-10-16T11:10:00Z,00000200,01000000,0003.61,0002.34,0001.52,0000.23,0000.18,0000.20,0000.22,0000.52,0000.20,17.2,23.7,,00.0,0667.6,30.9
2021-10-16T11:11:00Z,00000200,01000000,0004.28,0003.49,0001.93,0000.76,0000.37,0000.13,0000.45,0000.18,0000.27,17.1,23.7,,00.0,0667.6,30.9
2021-10-16T11:12:00Z,00000200,01000000,0004.39,0003.13,0001.86,0001.01,0000.44,0000.54,0000.66,0000.42,0000.08,17.1,23.7,,00.0,0667.6,30.9
2021-10-16T11:13:00Z,00000200,01000000,0004.56,0003.29,0002.22,0000.71,0000.39,0000.52,0000.42,0000.60,0000.24,17.0,23.6,,00.0,0667.6,30.9
2021-10-16T11:14:00Z,00000200,01000000,0004.91,0003.58,0002.11,0000.31,0000.44,0000.36,0000.99,0000.81,0000.68,16.9,23.6,,00.0,0667.6,30.9
2021-10-16T11:15:00Z,00000200,01000000,0005.49,0003.64,0002.47,0000.61,0000.55,0000.14,0000.99,0001.10,0000.73,17.0,23.6,,00.0,0667.6,30.9
2021-10-16T11:16:00Z,00000200,01000000,0006.14,0003.48,0002.42,0000.39,0000.47,0000.39,0000.91,0000.68,0000.73,17.0,23.6,,00.0,0667.6,30.9
2021-10-16T11:17:00Z,00000200,01000000,0004.82,0002.94,0001.93,0000.28,0000.41,-000.12,0000.66,0000.70,0000.73,17.0,23.6,,00.0,0667.6,30.9
2021-10-16T11:18:00Z,00000200,01000000,0003.09,0002.62,0001.59,0000.81,0000.30,0000.33,0000.58,0000.12,0000.35,17.0,23.6,,00.0,0667.6,30.9
2021-10-16T11:19:00Z,00000200,01000000,0003.40,0002.15,0001.58,0000.81,0000.24,0000.59,0000.27,0000.89,0000.40,17.1,23.6,,00.0,0667.6,30.9
2021-10-16T11:20:00Z,00000200,01000000,0003.84,0002.82,0001.78,0000.74,0000.08,0000.39,0000.83,0000.19,0000.08,17.1,23.6,,00.0,0667.6,30.9
2021-10-16T11:21:00Z,00000200,01000000,0003.85,0002.31,0001.79,0000.32,0000.03,0000.11,0000.44,0000.78,0000.74,17.1,23.6,,00.0,0667.6,30.9
2021-10-16T11:22:00Z,00000200,01000000,0003.85,0002.36,0001.53,0000.49,-000.04,0000.03,0000.69,0000.26,0000.24,17.2,23.6,,00.0,0667.6,30.9
2021-10-16T11:23:00Z,00000200,01000000,0003.28,0002.47,0001.56,0000.30,0000.09,-000.08,-000.05,0000.40,-000.18,17.2,23.7,,00.0,0667.6,30.9
2021-10-16T11:24:00Z,00000200,01000000,0004.50,0002.53,0001.58,0000.79,0000.33,0000.66,0000.86,0000.41,0000.75,17.2,23.7,,00.0,0667.6,30.9
2021-10-16T11:25:00Z,00000200,01000000,0003.83,0002.51,0001.68,0000.58,0000.51,0000.30,0000.73,0000.97,0000.22,17.2,23.7,,00.0,0667.6,30.9
2021-10-16T11:26:00Z,00000200,01000000,0003.79,0002.77,0001.96,0000.28,0000.33,0000.17,0000.38,0000.21,0000.20,17.1,23.7,,00.0,0667.5,30.9
2021-10-16T11:27:00Z,00000200,01000000,0004.09,0002.91,0002.17,0000.57,0000.25,0000.40,0000.93,0000.80,0000.44,17.0,23.6,,00.0,0667.5,30.9
2021-10-16T11:28:00Z,00000200,01000000,0003.61,0002.25,0001.76,0000.30,0000.44,0000.41,0001.01,0001.38,0000.89,17.0,23.6,,00.0,0667.5,30.9
2021-10-16T11:29:00Z,00000200,01000000,0003.25,0002.29,0001.77,0000.87,0000.28,0000.41,0001.54,0000.97,0001.05,16.9,23.5,,00.0,0667.5,30.9
2021-10-16T11:30:00Z,00000200,01000000,0003.81,0002.47,0001.90,0000.56,0000.51,0000.36,0000.73,0000.80,0000.80,16.9,23.5,,00.0,0667.5,30.9
2021-10-16T11:31:00Z,00000200,01000000,0003.50,0002.33,0001.56,0000.74,0000.12,0000.20,0001.04,0000.82,0000.70,16.9,23.6,,00.0,0667.4,30.9
2021-10-16T11:32:00Z,00000200,01000000,0003.80,0002.25,0001.38,0000.97,0000.51,-000.02,0000.54,0000.65,0000.18,16.9,23.6,,00.0,0667.4,30.9
2021-10-16T11:33:00Z,00000200,01000000,0003.21,0001.93,0001.18,0000.52,0000.13,0000.30,0000.48,0000.17,0000.44,17.0,23.6,,00.0,0667.4,30.9
2021-10-16T11:34:00Z,00000200,01000000,0002.86,0001.42,0001.21,-000.22,0000.27,0000.11,0000.39,0000.57,0000.30,17.0,23.6,,00.0,0667.4,30.9
2021-10-16T11:35:00Z,00000200,01000000,0002.67,0001.49,0001.15,0000.45,0000.19,0000.10,0000.60,0000.45,0000.30,17.0,23.6,,00.0,0667.4,30.9
2021-10-16T11:36:00Z,00000200,01000000,0003.53,0003.18,0002.72,0000.69,0000.44,0000.80,0005.61,0005.91,0005.35,17.0,23.6,,00.0,0667.1,30.9
2021-10-16T11:37:00Z,00000200,01000000,0001.51,0001.61,0000.66,0000.34,0000.01,-000.12,0001.23,0000.82,0001.20,17.1,23.6,,00.0,0666.9,30.9
2021-10-16T11:38:00Z,00000200,01000000,0002.13,0001.64,0001.00,0000.66,0000.05,0000.14,0000.54,0000.52,0000.26,17.1,23.6,,00.0,0666.9,30.9
2021-10-16T11:39:00Z,00000200,01000000,0001.84,0001.45,0001.22,0001.34,0000.03,0000.20,0000.61,0000.49,0000.31,17.1,23.6,,00.0,0666.9,30.9
2021-10-16T11:40:00Z,00000200,01000000,0002.59,0001.39,0001.14,0000.38,0000.37,0000.46,0000.32,0000.39,0000.32,17.0,23.6,,00.0,0666.9,30.9
2021-10-16T11:41:00Z,00000200,01000000,0001.44,0001.48,0001.01,0000.00,0000.16,0000.28,0000.30,0000.33,0000.30,16.9,23.6,,00.0,0666.9,30.8
2021-10-16T11:42:00Z,00000200,01000000,0002.46,0001.42,0001.02,0000.36,0000.21,-000.02,0000.93,0000.63,0000.11,16.9,23.5,,00.0,0666.8,30.8
2021-10-16T11:43:00Z,00000200,01000000,0002.45,0001.69,0001.18,0000.92,0000.13,-000.07,0000.72,0000.72,0000.72,16.8,23.5,,00.0,0666.8,30.8
2021-10-16T11:44:00Z,00000200,01000000,0002.12,0001.27,0001.06,-000.04,-000.14,-000.13,0000.63,0000.45,0000.42,16.8,23.4,,00.0,0666.8,30.8
2021-10-16T11:45:00Z,00000200,01000000,0002.40,0001.41,0001.14,0000.88,0000.20,0000.17,0000.12,0000.41,0000.10,16.8,23.4,,00.0,0666.8,30.8
2021-10-16T11:46:00Z,00000200,01000000,0002.51,0001.75,0000.85,0000.65,0000.09,0000.09,0000.74,0000.46,0000.77,16.8,23.5,,00.0,0666.8,30.8
2021-10-16T11:47:00Z,00000200,01000000,0002.10,0001.35,0001.05,0000.84,0000.13,0000.00,0000.74,0000.37,0000.29,16.8,23.4,,00.0,0666.8,30.9
2021-10-16T11:48:00Z,00000200,01000000,0002.64,0001.69,0000.85,0000.52,0000.10,0000.22,0000.27,0000.69,0000.49,16.9,23.5,,00.0,0666.8,30.9
2021-10-16T11:49:00Z,00000200,01000000,0002.67,0001.63,0001.39,0000.44,0000.19,0000.47,0000.70,0000.78,0000.27,16.9,23.5,,00.0,0666.8,30.9
2021-10-16T11:50:00Z,00000200,01000000,0002.29,0002.26,0001.46,0000.11,0000.11,0000.39,0000.75,0000.57,0000.55,16.9,23.5,,00.0,0666.7,30.9
2021-10-16T11:51:00Z,00000200,01000000,0003.38,0001.59,0001.34,0000.73,0000.17,0000.13,0000.56,0000.39,0000.55,17.0,23.5,,00.0,0666.7,30.9
2021-10-16T11:52:00Z,00000200,01000000,0003.05,0002.05,0001.04,0000.63,0000.25,-000.31,0000.29,0000.74,0000.31,17.0,23.5,,00.0,0666.7,30.9
2021-10-16T11:53:00Z,00000200,01000000,0002.31,0001.66,0001.12,-000.45,0000.16,-000.03,0000.41,-000.12,0000.06,17.1,23.6,,00.0,0666.7,30.9
2021-10-16T11:54:00Z,00000200,01000000,0003.02,0001.99,0000.95,-000.06,0000.13,0000.04,-000.04,0000.13,-000.01,17.1,23.6,,00.0,0666.7,30.9
2021-10-16T11:55:00Z,00000200,01000000,0002.10,0001.77,0000.92,0000.19,0000.28,0000.28,-000.45,-000.55,-000.30,17.1,23.6,,00.0,0666.8,30.9
2021-10-16T11:56:00Z,00000200,01000000,0003.49,0002.03,0001.19,0000.31,0000.09,0000.10,0000.29,-000.28,-000.23,17.1,23.6,,00.0,0666.8,30.9
2021-10-16T11:57:00Z,00000200,41000000,,,,,,,-000.34,-000.36,-000.11,17.1,23.6,,00.0,0666.7,30.8
2021-10-16T11:58:00Z,00000200,61000000,,,,,,,-000.03,0000.71,0000.23,16.7,23.7,,00.0,0665.8,30.8
2021-10-16T11:59:00Z,00000200,21000000,,,,,,,0000.04,-000.27,-000.10,16.7,23.8,,00.0,0665.8,30.8
